Location: Bennemühlen
(52.5740°N, 9.7135°E)
Time: 16:32:18
(UTC+00:00)

Meteor 2-10 Rocket - Pass Details

Date: 19 May 2025
Orbit: 733 x 881 km, 81.2° (Epoch: 17 June)

Event Time Altitude Azimuth Distance (km) Brightness Sun altitude
Rises 22:59:19 0° 348° (NNW) 3,433 8.6 -17.3°
Reaches altitude 10° 23:01:47 10° 353° (N) 2,510 7.5 -17.4°
Maximum altitude 23:07:25 55° 71° (ENE) 1,050 4.2 -17.4°
Enters shadow 23:11:11 21° 142° (SE) 1,858 5.0 -17.4°
